FDX1462 ZBYN-ZLDH

Flight info

Callsign FDX1462
Flight time N/A
Altitude 30100
Route OMKAK7X OMKAK B215 NIRUV W199 ALGOT V67 JSG W619 BILDA W112 TODOD TODOD9
Aircraft B722/M-ABDFGHIKLRVWY/LB1

Departure

Time 2026-04-30 03:10
Airport Taiyuan Wusu International Airport (ZBYN)

Arrival

Time N/A
Airport Dunhuang Mogao International Airport (ZLDH)
Time Latitude Longitude Altitude Speed Heading
2026-04-30 02:50 37.75505 112.62068 2569 ft 0 kts 217°
2026-04-30 02:58 37.75511 112.62074 2569 ft 3 kts 218°
2026-04-30 02:58 37.75525 112.62089 2567 ft 2 kts 225°
2026-04-30 02:58 37.75530 112.62098 2567 ft 1 kts 250°
2026-04-30 02:59 37.75530 112.62109 2565 ft 1 kts 288°
2026-04-30 02:59 37.75526 112.62118 2563 ft 1 kts 302°
2026-04-30 02:59 37.75522 112.62126 2563 ft 1 kts 305°
2026-04-30 02:59 37.75522 112.62127 2563 ft 0 kts 305°
2026-04-30 03:04 37.75523 112.62124 2569 ft 2 kts 305°
2026-04-30 03:05 37.75549 112.62082 2569 ft 10 kts 309°
2026-04-30 03:05 37.75542 112.61986 2569 ft 16 kts 218°
2026-04-30 03:05 37.75482 112.61883 2569 ft 15 kts 283°
2026-04-30 03:05 37.75542 112.61772 2568 ft 17 kts 308°
2026-04-30 03:06 37.75624 112.61637 2569 ft 20 kts 304°
2026-04-30 03:06 37.75637 112.61525 2567 ft 11 kts 219°
2026-04-30 03:06 37.75577 112.61469 2567 ft 11 kts 216°
2026-04-30 03:06 37.75515 112.61412 2569 ft 11 kts 216°
2026-04-30 03:07 37.75504 112.61404 2569 ft 0 kts 182°
2026-04-30 03:07 37.75500 112.61406 2567 ft 2 kts 152°
2026-04-30 03:07 37.75511 112.61452 2568 ft 10 kts 68°
2026-04-30 03:07 37.75503 112.61491 2570 ft 0 kts 126°
2026-04-30 03:08 37.75496 112.61503 2567 ft 12 kts 126°
2026-04-30 03:08 37.75353 112.61748 2569 ft 59 kts 127°
2026-04-30 03:08 37.75003 112.62327 2569 ft 105 kts 127°
2026-04-30 03:09 37.74478 112.63194 2567 ft 142 kts 124°
2026-04-30 03:09 37.73829 112.64285 2607 ft 165 kts 127°
2026-04-30 03:09 37.73128 112.65476 2874 ft 170 kts 126°
2026-04-30 03:09 37.72419 112.66688 3164 ft 179 kts 127°
2026-04-30 03:10 37.71611 112.67973 3468 ft 188 kts 129°
2026-04-30 03:10 37.71066 112.68858 3761 ft 194 kts 128°
2026-04-30 03:10 37.69916 112.70764 4022 ft 220 kts 128°
2026-04-30 03:10 37.69275 112.71841 4132 ft 237 kts 127°
2026-04-30 03:11 37.67844 112.74251 4400 ft 281 kts 128°
2026-04-30 03:11 37.67035 112.75589 4996 ft 283 kts 127°
2026-04-30 03:11 37.65845 112.77561 5971 ft 284 kts 126°
2026-04-30 03:11 37.64646 112.79577 6756 ft 290 kts 125°
2026-04-30 03:12 37.63425 112.81619 7606 ft 293 kts 125°
2026-04-30 03:12 37.62185 112.83674 8438 ft 296 kts 126°
2026-04-30 03:12 37.60933 112.85747 9254 ft 299 kts 125°
2026-04-30 03:12 37.59632 112.88833 10245 ft 299 kts 103°
2026-04-30 03:13 37.59380 112.90534 10725 ft 299 kts 91°
2026-04-30 03:13 37.59514 112.93147 11334 ft 302 kts 73°
2026-04-30 03:13 37.60288 112.95644 11755 ft 312 kts 57°
2026-04-30 03:13 37.61676 112.97795 12166 ft 322 kts 41°
2026-04-30 03:14 37.63442 112.99642 12473 ft 338 kts 34°
2026-04-30 03:14 37.65374 113.01225 13279 ft 336 kts 26°
2026-04-30 03:14 37.67607 113.02216 13925 ft 339 kts 11°
2026-04-30 03:14 37.69966 113.02424 14512 ft 342 kts 356°
2026-04-30 03:15 37.72301 113.01819 15151 ft 345 kts 341°
2026-04-30 03:15 37.74445 113.00415 15746 ft 351 kts 326°
2026-04-30 03:15 37.76254 112.98308 16362 ft 357 kts 314°
2026-04-30 03:15 37.77840 112.95927 16916 ft 362 kts 310°
2026-04-30 03:16 37.79078 112.93125 17463 ft 371 kts 293°
2026-04-30 03:16 37.79711 112.89935 18017 ft 378 kts 282°
2026-04-30 03:16 37.79996 112.86606 18525 ft 384 kts 275°
2026-04-30 03:16 37.80029 112.83210 19005 ft 388 kts 272°
2026-04-30 03:17 37.80035 112.79786 19442 ft 392 kts 275°
2026-04-30 03:17 37.80180 112.76325 19812 ft 397 kts 277°
2026-04-30 03:17 37.80377 112.72812 20184 ft 403 kts 276°
2026-04-30 03:17 37.80500 112.69263 20571 ft 405 kts 275°
2026-04-30 03:18 37.80580 112.65695 20942 ft 407 kts 275°
2026-04-30 03:18 37.80697 112.62115 21319 ft 408 kts 276°
2026-04-30 03:18 37.80845 112.58525 21706 ft 410 kts 276°
2026-04-30 03:18 37.80975 112.54917 22097 ft 412 kts 275°
2026-04-30 03:19 37.81084 112.51291 22487 ft 414 kts 275°
2026-04-30 03:19 37.81198 112.47651 22889 ft 415 kts 275°
2026-04-30 03:19 37.81324 112.44001 23291 ft 417 kts 275°
2026-04-30 03:19 37.81448 112.40333 23691 ft 418 kts 275°
2026-04-30 03:20 37.81565 112.36647 24042 ft 420 kts 275°
2026-04-30 03:20 37.81679 112.32952 24382 ft 421 kts 275°
2026-04-30 03:20 37.81797 112.29249 24735 ft 422 kts 275°
2026-04-30 03:20 37.81918 112.25537 25092 ft 423 kts 275°
2026-04-30 03:21 37.82034 112.21815 25452 ft 424 kts 276°
2026-04-30 03:21 37.82144 112.18079 25813 ft 425 kts 276°
2026-04-30 03:21 37.82256 112.14338 26185 ft 426 kts 276°
2026-04-30 03:21 37.82372 112.10587 26559 ft 427 kts 276°
2026-04-30 03:22 37.82486 112.06827 26939 ft 428 kts 276°
2026-04-30 03:22 37.82595 112.03067 27323 ft 428 kts 276°
2026-04-30 03:22 37.82702 111.99309 27716 ft 428 kts 276°
2026-04-30 03:22 37.82811 111.95543 28106 ft 428 kts 277°
2026-04-30 03:23 37.82920 111.91788 28508 ft 427 kts 277°
2026-04-30 03:23 37.83025 111.88031 28916 ft 427 kts 277°
2026-04-30 03:23 37.83129 111.84284 29317 ft 426 kts 277°
2026-04-30 03:23 37.83231 111.80547 29741 ft 424 kts 277°
2026-04-30 03:24 37.83332 111.76825 30153 ft 423 kts 278°
2026-04-30 03:24 37.83436 111.73080 30169 ft 430 kts 278°
2026-04-30 03:24 37.84107 111.65521 30180 ft 436 kts 286°
2026-04-30 03:25 37.85184 111.57872 30185 ft 446 kts 283°
2026-04-30 03:25 37.85985 111.50107 30187 ft 444 kts 284°
2026-04-30 03:26 37.86957 111.42448 30176 ft 443 kts 284°
2026-04-30 03:26 37.87817 111.34725 30186 ft 442 kts 284°
2026-04-30 03:27 37.88731 111.27035 30184 ft 441 kts 284°
2026-04-30 03:27 37.89612 111.19349 30171 ft 441 kts 284°
2026-04-30 03:28 37.90492 111.11678 30163 ft 440 kts 284°
2026-04-30 03:28 37.91369 111.04013 30169 ft 440 kts 283°
2026-04-30 03:29 37.92235 110.96365 30163 ft 438 kts 283°
2026-04-30 03:29 37.93098 110.88722 30158 ft 438 kts 283°
2026-04-30 03:30 37.93953 110.81085 30153 ft 437 kts 283°
2026-04-30 03:30 37.94804 110.73454 30153 ft 437 kts 283°
2026-04-30 03:31 37.95648 110.65831 30155 ft 437 kts 283°
2026-04-30 03:31 37.96487 110.58209 30147 ft 437 kts 283°
2026-04-30 03:32 37.97321 110.50594 30144 ft 437 kts 282°
2026-04-30 03:32 37.98149 110.42971 30146 ft 437 kts 282°
2026-04-30 03:33 37.98971 110.35355 30139 ft 436 kts 282°
2026-04-30 03:33 37.99792 110.27730 30136 ft 437 kts 282°
2026-04-30 03:34 38.00604 110.20103 30135 ft 436 kts 282°
2026-04-30 03:34 38.01416 110.12469 30128 ft 437 kts 282°
2026-04-30 03:35 38.02220 110.04829 30126 ft 437 kts 281°
2026-04-30 03:35 38.03021 109.97183 30124 ft 438 kts 281°
2026-04-30 03:36 38.03816 109.89533 30124 ft 437 kts 281°
2026-04-30 03:36 38.04606 109.81895 30126 ft 436 kts 281°
2026-04-30 03:37 38.05389 109.74268 30119 ft 436 kts 281°
2026-04-30 03:37 38.06162 109.66698 30118 ft 435 kts 281°
2026-04-30 03:38 38.06939 109.59046 30116 ft 443 kts 281°
2026-04-30 03:38 38.07731 109.51179 30123 ft 455 kts 280°
2026-04-30 03:39 38.08536 109.43126 30125 ft 462 kts 280°
2026-04-30 03:39 38.09335 109.35053 30125 ft 461 kts 280°
2026-04-30 03:40 38.10133 109.26991 30115 ft 460 kts 280°
2026-04-30 03:40 38.10919 109.18935 30115 ft 459 kts 280°
2026-04-30 03:41 38.11702 109.10900 30103 ft 458 kts 280°
2026-04-30 03:41 38.12475 109.02872 30099 ft 458 kts 280°
2026-04-30 03:42 38.13243 108.94857 30093 ft 457 kts 280°
2026-04-30 03:42 38.14004 108.86854 30087 ft 456 kts 280°
2026-04-30 03:43 38.14758 108.78866 30083 ft 455 kts 280°
2026-04-30 03:43 38.15506 108.70894 30081 ft 454 kts 280°
2026-04-30 03:44 38.16245 108.62932 30083 ft 453 kts 280°
2026-04-30 03:44 38.16979 108.54994 30075 ft 452 kts 279°
2026-04-30 03:45 38.17704 108.47064 30072 ft 451 kts 279°
2026-04-30 03:45 38.18424 108.39150 30072 ft 451 kts 279°
2026-04-30 03:46 38.19139 108.31237 30065 ft 450 kts 279°
2026-04-30 03:46 38.19846 108.23328 30064 ft 450 kts 279°
2026-04-30 03:47 38.20549 108.15416 30054 ft 450 kts 279°
2026-04-30 03:47 38.21247 108.07511 30057 ft 450 kts 279°
2026-04-30 03:48 38.21938 107.99605 30051 ft 450 kts 279°
2026-04-30 03:48 38.22625 107.91694 30046 ft 450 kts 279°
2026-04-30 03:49 38.23306 107.83784 30047 ft 450 kts 278°
2026-04-30 03:49 38.23981 107.75873 30038 ft 450 kts 278°